Tracking 32941 objects as of 16-Jan-2026
HD Live streaming from Space Station
objects crossing your sky now

FLOCK 4BE 7

Track FLOCK 4BE 7 now!
10-day predictions
FLOCK 4BE 7 is classified as:


NORAD ID: 60481
Int'l Code: 2024-149P
Perigee: 467.2 km
Apogee: 473.2 km
Inclination: 97.4 °
Period: 93.9 minutes
Semi major axis: 6841 km
RCS: Unknown
Launch date: August 16, 2024
Source: United States (US)
Launch site: AIR FORCE WESTERN TEST RANGE (AFWTR)
Your satellite tracking list
Your tracking list is empty




NASA's NSSDC Master Catalog

Two Line Element Set (TLE):
1 60481U 24149P   26015.70366388  .00009101  00000-0  27666-3 0  9995
2 60481  97.3906  98.1097 0004382  90.9514 269.2230 15.34263872 78824
Source of the keplerian elements: AFSPC